KE6AFE Weather Reports


time (UTC)temp
C
wind
direction
speed
KPH
gust
KPH
rain 1hr
cm
rain 24hr
cm
rain mn
cm
humidity
%
barometer
mb
20260503000816 20 1 0.0 0.0 0.00 0.00 0.00 53 1012.1
20260502235806 20 1 0.0 0.0 0.00 0.00 0.00 53 1012.2
20260502234756 20 1 0.0 0.0 0.00 0.00 0.00 54 1012.3
20260502233746 20 1 0.0 0.0 0.00 0.00 0.00 53 1012.4
20260502232736 20 1 0.0 0.0 0.00 0.00 0.00 54 1012.4
20260502231726 20 1 0.0 0.0 0.00 0.00 0.00 54 1012.5
20260502230716 20 1 0.0 0.0 0.00 0.00 0.00 54 1012.7
20260502225706 20 2 0.0 0.0 0.00 0.00 0.00 55 1012.9
20260502224656 20 1 0.0 0.0 0.00 0.00 0.00 55 1013.1
20260502223646 20 1 0.0 0.0 0.00 0.00 0.00 58 1013.2
20260502222636 19 1 0.0 0.0 0.00 0.00 0.00 57 1013.4
20260502221626 19 1 0.0 0.0 0.00 0.00 0.00 59 1013.5
20260502220616 19 2 0.0 0.0 0.00 0.00 0.00 58 1013.8
20260502215606 18 1 0.0 0.0 0.00 0.00 0.00 59 1013.8
20260502214556 18 1 0.0 0.0 0.00 0.00 0.00 61 1014.0
20260502213546 18 2 0.0 0.0 0.00 0.00 0.00 61 1014.1
20260502212536 18 1 0.0 0.0 0.00 0.00 0.00 63 1014.1
20260502211526 17 2 0.0 0.0 0.00 0.00 0.00 63 1014.1
20260502210516 17 2 0.0 0.0 0.00 0.00 0.00 63 1014.1
20260502205506 17 2 0.0 0.0 0.00 0.00 0.00 64 1014.3
20260502204456 17 2 0.0 0.0 0.00 0.00 0.00 65 1014.4
20260502203446 17 2 0.0 0.0 0.00 0.00 0.00 65 1014.6
20260502202436 17 3 0.0 0.0 0.00 0.00 0.00 66 1014.7
20260502201426 16 3 0.0 0.0 0.00 0.00 0.00 66 1014.9
20260502200416 16 2 0.0 0.0 0.00 0.00 0.00 67 1015.0
20260502195406 16 3 0.0 0.0 0.00 0.00 0.00 67 1015.2
20260502194356 16 2 0.0 0.0 0.00 0.00 0.00 67 1015.2
20260502193346 16 2 0.0 0.0 0.00 0.00 0.00 68 1015.3
20260502192336 16 2 0.0 0.0 0.00 0.00 0.00 68 1015.3
20260502191326 16 2 0.0 0.0 0.00 0.00 0.00 69 1015.3
20260502190316 16 2 0.0 0.0 0.00 0.00 0.00 70 1015.3
20260502185306 16 2 0.0 0.0 0.00 0.00 0.00 70 1015.3
20260502184256 16 2 0.0 0.0 0.00 0.00 0.00 70 1015.3
20260502183246 15 2 0.0 0.0 0.00 0.00 0.00 71 1015.2
20260502182236 15 1 0.0 0.0 0.00 0.00 0.00 70 1015.3
20260502181226 15 1 0.0 0.0 0.00 0.00 0.00 70 1015.3
20260502180216 15 2 0.0 0.0 0.00 0.00 0.00 70 1015.2
20260502170116 14 1 0.0 0.0 0.00 0.00 0.00 73 1015.0
20260502164056 13 1 0.0 0.0 0.00 0.00 0.00 74 1015.0
20260502163046 13 1 0.0 0.0 0.00 0.00 0.00 75 1014.9
20260502162036 13 1 0.0 0.0 0.00 0.00 0.00 75 1014.9
20260502161026 13 2 0.0 0.0 0.00 0.00 0.00 75 1014.8
20260502151936 13 1 0.0 0.0 0.00 0.00 0.00 73 1014.4
20260502150926 13 1 0.0 0.0 0.00 0.00 0.00 73 1014.3
20260502130726 13 1 0.0 0.0 0.00 0.00 0.00 75 1013.7
20260502123656 13 1 0.0 0.0 0.00 0.00 0.00 75 1013.7
20260502122646 13 1 0.0 0.0 0.00 0.00 0.00 76 1013.6
20260502121636 13 1 0.0 0.0 0.00 0.00 0.00 75 1013.5
20260502120626 13 2 0.0 0.0 0.00 0.00 0.00 75 1013.4
20260502115616 13 1 0.0 0.0 0.00 0.00 0.00 75 1013.4
20260502114606 13 0 0.0 0.0 0.00 0.00 0.00 75 1013.4
20260502113556 13 1 0.0 0.0 0.00 0.00 0.00 75 1013.4
20260502112546 13 1 0.0 0.0 0.00 0.00 0.00 74 1013.4
20260502111536 13 0 0.0 0.0 0.00 0.00 0.00 74 1013.4
20260502110526 13 0 0.0 0.0 0.00 0.00 0.00 74 1013.3
20260502105516 13 1 0.0 0.0 0.00 0.00 0.00 74 1013.5
20260502104506 13 0 0.0 0.0 0.00 0.00 0.00 73 1013.5
20260502103456 13 1 0.0 0.0 0.00 0.00 0.00 73 1013.5
20260502102446 13 1 0.0 0.0 0.00 0.00 0.00 73 1013.5
20260502101436 13 1 0.0 0.0 0.00 0.00 0.00 73 1013.6
20260502100426 13 0 0.0 0.0 0.00 0.00 0.00 73 1013.7
20260502091336 13 0 0.0 0.0 0.00 0.00 0.00 73 1014.1
20260502090326 13 1 0.0 0.0 0.00 0.00 0.00 74 1014.3
20260502071136 13 1 0.0 0.0 0.00 0.00 0.00 72 1014.6
20260502070126 14 1 0.0 0.0 0.00 0.00 0.00 72 1014.6
20260502065116 14 1 0.0 0.0 0.00 0.00 0.00 72 1014.6
20260502064106 13 1 0.0 0.0 0.00 0.00 0.00 71 1014.7
20260502063056 14 1 0.0 0.0 0.00 0.00 0.00 70 1014.6
20260502062046 14 1 0.0 0.0 0.00 0.00 0.00 70 1014.7
20260502061036 14 2 0.0 0.0 0.00 0.00 0.00 70 1014.8
20260502060026 14 1 0.0 0.0 0.00 0.00 0.00 70 1014.8
20260502055016 14 1 0.0 0.0 0.00 0.00 0.00 70 1014.9
20260502054006 15 1 0.0 0.0 0.00 0.00 0.00 69 1015.0
20260502052956 15 1 0.0 0.0 0.00 0.00 0.00 69 1015.0
20260502051946 15 1 0.0 0.0 0.00 0.00 0.00 69 1015.0
20260502050936 15 1 0.0 0.0 0.00 0.00 0.00 69 1014.9
20260502045926 15 1 0.0 0.0 0.00 0.00 0.00 68 1015.0
20260502044916 15 1 0.0 0.0 0.00 0.00 0.00 68 1014.9
20260502043906 15 1 0.0 0.0 0.00 0.00 0.00 68 1014.8
20260502042856 16 1 0.0 0.0 0.00 0.00 0.00 67 1014.7
20260502041846 16 1 0.0 0.0 0.00 0.00 0.00 65 1014.6
20260502040836 16 1 0.0 0.0 0.00 0.00 0.00 65 1014.5
20260502035826 16 0 0.0 0.0 0.00 0.00 0.00 64 1014.4
20260502034816 17 0 0.0 0.0 0.00 0.00 0.00 63 1014.2
20260502033806 17 1 0.0 0.0 0.00 0.00 0.00 63 1014.1
20260502032756 17 1 0.0 0.0 0.00 0.00 0.00 63 1014.1
20260502031746 17 1 0.0 0.0 0.00 0.00 0.00 63 1014.0
20260502030736 17 1 0.0 0.0 0.00 0.00 0.00 62 1014.0
20260502025726 17 1 0.0 0.0 0.00 0.00 0.00 61 1013.9
20260502024716 18 0 0.0 0.0 0.00 0.00 0.00 60 1013.9
20260502023706 18 0 0.0 0.0 0.00 0.00 0.00 60 1013.9
20260502022656 18 1 0.0 0.0 0.00 0.00 0.00 58 1013.9
20260502021646 19 0 0.0 0.0 0.00 0.00 0.00 57 1013.8
20260502020636 19 0 0.0 0.0 0.00 0.00 0.00 56 1013.8
20260502015626 20 0 0.0 0.0 0.00 0.00 0.00 55 1013.9
20260502014616 20 0 0.0 0.0 0.00 0.00 0.00 55 1013.8
20260502013606 20 0 0.0 0.0 0.00 0.00 0.00 53 1013.9
20260502012556 21 0 0.0 0.0 0.00 0.00 0.00 52 1013.9
20260502011546 21 0 0.0 0.0 0.00 0.00 0.00 51 1013.8
20260502010536 22 0 0.0 0.0 0.00 0.00 0.00 50 1013.8
20260502005526 22 0 0.0 0.0 0.00 0.00 0.00 49 1013.8
20260502004516 23 1 0.0 0.0 0.00 0.00 0.00 49 1013.9
20260502003506 23 0 0.0 0.0 0.00 0.00 0.00 48 1013.8
20260502002456 23 0 0.0 0.0 0.00 0.00 0.00 49 1013.8
20260502001446 23 0 0.0 0.0 0.00 0.00 0.00 48 1013.9